Location: Glencliff
(36.1226°N, 86.7183°W)
Time: 13:58:29
(UTC+00:00)

Cosmos 2098 Rocket - Pass Details

Date: 25 August 2019
Orbit: 368 x 1192 km, 82.9° (Epoch: 21 September)

Event Time Altitude Azimuth Distance (km) Brightness Sun altitude
Rises 01:48:33 0° 5° (N) 3,090 6.9 -16.5°
Reaches altitude 10° 01:50:50 10° 15° (NNE) 2,294 6.1 -16.9°
Maximum altitude 01:55:38 35° 81° (E) 1,386 4.4 -17.7°
Enters shadow 01:57:22 30° 114° (ESE) 1,606 4.6 -18.0°
